ECMWFFLT1_500_avort_021.txt.gz
Vorticity
-2 -2 2 3 2 5 4 5 5 3 8 11 7 6 8 9 9 10 11 11 9 9 9 8 6 6 6 5 4 4 4 4 4 5 6 6 7 7 6 7 7 6 4 4 5 4 4 4 2 1 2 2 8 16 13 5 5 6 4 4 4 5 7
-0 -2 1 3 3 5 5 5 5 4 6 7 5 7 7 4 3 4 7 8 7 8 9 8 6 7 7 5 4 3 3 3 3 3 5 5 6 6 6 7 7 6 5 4 4 5 4 4 2 1 1 2 5 13 15 7 4 5 4 4 4 5 5
3 2 3 2 2 3 4 5 7 6 5 4 4 4 1 -2 -1 1 6 7 6 7 7 7 7 7 7 7 7 6 5 5 5 4 4 4 4 5 5 6 6 6 6 4 4 5 5 5 4 1 0 2 3 9 15 10 4 5 5 4 4 4 4
6 5 1 0 3 4 4 6 7 8 7 5 4 2 -0 -0 1 2 4 7 7 6 7 7 6 6 6 8 8 8 7 7 7 6 5 5 4 4 4 5 6 5 5 5 4 5 6 6 6 3 1 1 2 7 14 11 5 5 6 4 4 4 3
9 6 0 2 7 8 7 7 9 9 7 6 4 2 2 2 4 3 3 5 6 6 6 6 6 7 7 7 5 7 9 10 10 9 9 7 6 5 5 5 5 5 5 5 4 4 5 5 6 5 2 1 2 7 13 12 6 4 6 5 4 4 3
11 7 4 7 9 8 4 2 6 7 7 8 6 4 3 3 4 3 2 4 5 6 5 5 8 9 8 5 4 7 11 11 10 10 11 12 11 9 7 6 5 6 5 4 4 4 5 6 6 6 4 1 1 6 12 12 6 4 5 5 5 4 3
15 13 8 5 4 5 4 2 4 6 7 9 7 7 7 4 3 4 4 3 3 6 7 7 9 11 8 4 5 8 8 7 7 8 9 12 13 11 10 8 7 6 6 5 5 4 5 5 5 5 4 2 2 6 12 12 7 4 4 5 6 5 4
14 18 11 1 -0 4 6 4 4 7 8 7 6 7 8 5 3 4 5 4 4 6 7 8 8 9 7 6 7 8 6 4 6 8 10 12 14 14 12 9 7 6 6 5 5 4 5 6 6 5 5 4 4 8 12 11 6 3 3 5 6 5 4
9 12 9 3 1 4 5 3 4 8 9 9 8 6 6 7 6 6 6 5 4 5 6 6 7 7 7 9 10 9 6 5 5 8 12 13 13 15 14 13 11 9 8 7 6 6 5 5 6 6 6 5 6 9 12 10 6 3 4 5 5 5 4
3 2 3 3 4 6 7 4 4 5 8 12 13 11 10 8 7 9 9 6 4 6 7 5 6 7 7 10 12 9 6 5 6 8 11 11 11 11 12 12 13 12 12 11 10 9 9 8 7 6 7 7 8 12 13 10 6 3 3 4 4 5 4
6 4 2 3 7 10 8 3 1 1 4 9 12 16 17 13 11 11 9 7 6 7 8 6 7 8 7 9 11 9 6 4 5 9 10 10 10 9 9 11 13 15 16 15 16 15 14 12 10 9 11 11 11 12 12 10 6 3 4 4 4 5 5
15 10 4 2 7 10 6 2 -1 -4 -1 4 6 12 19 20 20 17 11 11 9 8 8 6 7 7 6 10 12 10 7 4 6 10 9 8 9 10 12 14 15 17 17 19 22 24 24 23 20 17 16 15 13 11 10 9 6 3 4 4 3 4 4
23 19 8 5 8 10 7 3 -0 -4 -1 6 5 7 14 20 22 19 15 14 10 9 9 7 8 8 9 13 15 11 7 6 9 10 6 6 7 9 11 14 16 15 13 15 20 23 25 25 25 25 24 22 15 10 10 9 6 4 5 5 4 4 5
23 24 18 14 11 10 9 5 1 -2 -1 6 9 8 11 15 16 14 12 13 12 11 9 6 6 6 8 13 16 15 12 10 10 8 5 6 8 8 8 8 10 9 9 11 13 14 16 18 20 23 27 25 16 9 10 9 6 4 4 5 5 4 5
15 19 21 18 12 11 13 8 2 -2 -5 0 8 9 10 12 13 10 7 8 9 8 6 5 4 5 10 13 14 17 18 13 8 7 5 5 6 7 5 3 3 3 3 3 4 7 11 14 16 17 20 22 16 9 9 10 7 5 5 6 6 6 5
8 13 16 16 14 16 17 11 7 5 -0 -1 4 7 9 11 11 10 8 7 6 7 6 6 7 9 13 14 13 15 18 13 7 5 4 5 6 6 4 1 -1 -1 -1 -0 1 3 5 9 15 16 15 17 16 12 10 11 9 5 6 7 7 6 5
2 6 9 12 16 17 14 10 9 10 7 3 1 4 8 9 8 8 9 7 6 6 5 6 9 8 8 9 8 9 13 12 7 5 5 5 5 4 5 4 0 -2 0 1 -0 1 4 7 11 14 15 16 17 16 14 13 9 5 7 10 8 7 4
0 1 2 6 11 13 13 11 10 12 14 9 2 3 6 7 6 5 6 8 9 8 7 9 10 7 6 6 5 6 11 12 9 9 8 6 4 2 2 4 3 1 0 -0 -0 2 4 7 8 11 15 17 17 17 17 16 10 5 7 10 8 6 3
1 2 3 4 7 9 10 13 13 14 16 12 5 3 5 7 8 4 3 7 9 8 9 8 6 7 7 3 1 6 8 7 8 12 13 11 9 4 -1 0 3 3 1 2 4 3 4 9 10 8 9 13 16 16 16 16 12 7 8 9 9 7 3
2 5 5 3 6 9 9 11 14 14 14 12 6 5 6 7 9 6 2 4 5 6 7 6 5 6 5 2 2 6 6 4 5 7 10 10 9 8 6 4 6 9 10 10 10 9 9 10 10 9 7 10 13 13 13 16 14 10 7 7 9 8 4
6 6 6 3 4 8 9 9 10 12 14 11 8 7 6 6 10 11 6 2 3 5 5 5 5 5 3 3 4 4 3 3 1 1 4 5 7 9 7 4 4 6 5 5 6 9 10 8 8 10 7 6 8 10 13 17 17 13 8 7 10 9 5
6 4 4 4 5 7 9 8 8 9 10 10 10 9 5 3 7 12 11 8 7 8 7 5 7 9 8 9 11 9 5 4 3 2 1 2 6 10 9 5 4 3 1 0 0 2 4 4 6 8 7 6 6 6 8 13 17 18 12 7 8 8 5
4 4 3 3 6 8 8 7 7 7 7 9 11 11 8 5 3 5 10 10 6 7 7 3 5 10 10 10 11 10 9 10 8 5 2 -2 -2 2 6 7 4 4 5 5 5 4 3 3 5 6 5 4 3 4 5 7 12 16 16 11 8 7 5
4 4 4 4 7 8 7 7 8 7 7 8 8 9 10 10 8 7 9 7 1 1 3 3 5 8 8 5 3 3 7 11 12 12 11 6 -0 -3 0 3 4 4 4 2 2 3 2 3 6 6 4 3 3 3 4 5 7 11 17 16 10 7 5
6 6 5 4 6 8 8 6 6 6 7 6 6 8 8 9 9 9 11 12 8 4 3 3 3 3 3 4 3 1 0 1 8 15 11 6 6 3 -2 -0 4 5 6 7 11 12 7 3 2 3 5 5 2 2 3 5 5 6 13 19 17 11 6
5 7 7 5 5 8 9 8 5 6 7 6 5 6 6 6 5 4 6 9 10 9 6 4 3 3 3 4 3 3 1 -0 8 14 6 0 5 3 -2 3 6 1 -1 3 12 20 19 12 7 6 8 6 3 3 3 2 2 2 7 14 17 16 11
4 6 8 7 6 7 9 8 6 4 4 5 6 6 5 5 5 5 5 3 4 5 4 2 2 3 3 3 3 6 8 5 6 10 7 4 2 -3 0 8 6 -0 -2 -0 4 11 15 15 13 11 11 11 9 7 4 0 -0 2 5 8 13 19 18
6 6 7 7 7 8 9 8 7 5 4 4 5 6 6 5 5 6 7 6 5 5 4 6 9 7 5 6 6 8 10 7 5 11 15 11 2 -1 5 7 1 -2 1 2 3 6 9 11 11 11 14 14 10 11 13 8 1 -1 0 2 4 11 16
8 8 8 8 9 10 10 8 7 6 5 4 5 6 7 6 6 5 4 4 4 3 4 8 11 9 8 8 6 5 6 5 4 9 13 8 1 -1 2 2 -1 -1 1 3 5 8 9 8 5 7 11 6 1 8 14 14 13 13 7 0 -1 2 8
7 7 8 8 10 12 12 10 8 7 7 6 6 7 6 5 6 5 2 2 2 1 1 3 5 6 6 6 6 4 5 5 5 5 6 4 2 2 3 3 1 1 1 2 4 7 8 7 5 7 8 1 -3 3 8 7 11 17 18 15 10 4 0
8 6 6 7 9 10 10 9 7 7 8 7 6 7 6 5 6 5 4 5 5 3 3 2 2 2 3 5 6 5 4 4 4 3 3 2 2 5 7 6 4 3 3 3 6 9 9 6 4 4 6 6 1 2 7 7 3 5 10 16 17 13 6
9 8 8 8 8 9 11 13 12 10 9 10 9 8 6 4 4 4 4 5 5 5 6 6 5 5 5 4 3 2 3 4 4 5 6 6 9 11 10 8 6 5 5 5 8 11 8 4 3 4 8 11 6 1 4 7 6 4 1 1 10 16 12
10 11 11 10 9 9 11 15 19 18 15 14 15 15 13 9 5 2 2 3 4 4 4 5 5 4 2 1 -0 0 3 4 6 8 8 7 9 8 5 5 4 3 6 10 15 16 10 6 7 8 8 8 7 6 4 2 4 8 6 7 11 11 12
9 11 13 14 14 12 10 9 13 16 15 14 15 16 19 19 15 10 7 7 8 9 9 8 8 7 9 13 16 18 18 15 12 12 11 11 11 9 7 8 7 6 10 12 11 11 9 7 8 8 6 6 6 6 5 3 4 3 2 7 8 3 8
8 8 11 14 13 11 9 7 9 10 9 9 11 10 10 12 13 13 14 15 15 17 18 17 17 18 20 21 21 22 22 18 14 12 11 11 11 12 14 13 10 11 12 8 2 3 5 7 6 3 1 2 2 2 3 5 6 5 5 9 10 5 4
5 4 5 9 9 9 9 9 9 10 9 8 11 12 9 8 8 10 13 14 13 12 14 14 14 14 15 13 12 9 6 4 4 4 4 5 6 8 10 10 10 11 12 9 6 4 3 4 4 4 6 5 3 4 4 1 1 4 5 4 3 3 6
5 4 2 3 4 5 7 8 8 10 11 8 7 10 12 12 10 9 9 8 7 8 8 8 7 5 5 6 6 5 4 3 3 1 1 3 4 4 6 8 7 5 5 5 4 3 3 3 2 2 4 2 1 5 7 5 5 6 5 6 5 5 7
4 4 2 3 4 4 6 8 8 8 11 11 6 3 7 11 10 8 5 4 6 7 5 5 5 3 3 3 2 2 4 3 3 3 4 3 3 3 5 7 7 7 8 8 7 7 7 6 5 6 7 7 7 8 7 6 7 5 4 6 6 6 12

ECMWFFLT1_500_avort_024.txt.gz
Vorticity
4 4 4 5 6 5 6 7 7 7 6 6 7 8 7 6 6 6 6 6 5 5 5 5 5 5 5 5 5 5 5 6 5 5 5 6 6 5 5 6 6 6 5 4 4 3 3 4 3 2 3 3 2 4 7 10 10 7 5 6 9 9 7
6 7 6 6 7 7 8 9 8 8 6 5 5 5 5 6 6 6 7 8 7 6 7 7 6 6 6 5 5 4 4 5 6 5 5 5 5 5 5 6 7 6 6 5 4 2 3 4 4 3 3 3 1 1 5 9 10 8 6 5 7 9 7
7 7 5 8 9 7 7 9 9 9 8 7 5 3 3 5 6 7 9 10 10 8 8 7 7 7 7 5 5 4 3 4 6 5 4 4 4 4 4 5 5 6 6 6 6 4 5 5 4 3 3 4 2 -0 2 7 10 9 7 5 6 9 8
6 5 4 6 7 5 5 6 7 8 8 7 7 5 4 4 6 8 8 9 11 10 9 9 8 8 7 6 6 6 5 5 6 5 5 4 4 4 4 5 5 5 5 6 6 6 5 5 5 4 4 5 5 2 -1 3 10 11 8 6 6 7 8
6 4 3 3 4 6 8 9 10 12 12 10 9 8 6 6 7 6 4 5 5 6 9 10 8 6 6 5 5 6 6 6 6 7 6 6 6 6 6 6 5 4 5 5 5 5 6 5 5 4 4 4 5 5 1 1 7 11 9 6 5 7 8
5 3 3 4 3 3 6 9 10 12 15 14 11 9 8 8 6 2 2 3 2 4 8 8 6 6 6 5 6 6 6 7 7 7 8 8 8 8 8 7 6 6 5 5 5 5 5 5 5 5 4 4 4 6 4 1 3 9 11 7 4 6 7
3 3 4 4 1 1 4 6 4 6 12 14 12 11 10 7 3 2 3 2 2 4 6 6 7 8 7 6 7 7 8 7 6 6 7 7 7 8 8 8 8 8 6 6 6 6 6 5 5 5 5 4 4 5 6 3 2 7 11 10 5 4 6
3 4 5 4 1 0 4 6 3 3 7 12 12 11 12 7 1 2 3 1 3 4 2 4 7 8 8 8 8 9 8 5 3 4 5 6 6 7 8 9 9 9 9 9 8 7 7 6 5 5 5 4 4 5 6 4 2 5 11 12 7 3 5
6 9 8 6 3 3 7 9 4 1 3 7 7 8 12 10 3 2 1 1 3 2 1 4 6 7 8 8 9 10 7 4 4 5 6 6 7 8 8 9 9 9 11 12 11 9 8 8 7 6 5 5 5 5 6 6 4 5 9 12 10 4 4
3 6 7 8 8 7 7 4 -1 -1 1 3 5 8 11 11 9 6 3 2 2 1 2 4 5 7 7 6 8 8 6 5 5 6 8 8 7 7 7 8 9 11 12 13 14 14 13 11 10 9 8 8 7 7 7 7 6 6 7 10 11 6 3
2 3 5 7 8 7 4 -1 -3 1 3 2 5 8 9 9 8 8 8 7 6 5 6 6 5 7 7 6 7 6 6 6 6 7 10 10 8 6 7 8 9 11 13 12 13 14 15 15 15 14 12 11 10 8 8 8 9 9 8 8 10 7 4
5 7 8 8 7 6 2 -2 -0 3 4 1 0 3 7 7 6 8 10 10 12 11 9 8 6 6 8 6 5 7 8 7 6 9 12 11 8 7 8 9 11 13 14 13 13 16 19 22 22 20 17 14 13 11 10 10 10 11 12 9 9 8 5
4 4 8 9 7 6 3 0 1 2 2 1 0 2 5 6 6 8 8 9 16 17 12 8 6 5 6 5 4 7 8 7 7 10 12 10 7 8 8 9 13 16 16 16 17 18 18 20 22 24 22 18 16 15 13 13 12 14 15 11 8 8 6
6 3 5 4 4 8 8 3 -1 1 3 2 1 0 2 6 7 6 8 11 17 21 15 8 6 7 5 4 6 9 8 8 9 10 11 9 6 6 7 9 13 15 15 16 15 12 11 11 13 18 20 18 17 16 15 16 16 16 17 13 9 9 7
15 11 9 4 4 9 10 6 2 3 5 4 2 -0 0 6 8 6 9 13 15 22 22 12 5 4 4 5 9 10 9 8 9 10 11 8 7 7 7 8 11 11 12 12 7 5 5 5 5 8 11 14 14 13 14 15 16 17 17 14 11 10 8
23 21 18 12 9 7 5 4 5 6 7 5 4 -1 -4 4 10 8 8 9 12 18 21 17 12 8 10 12 12 10 9 8 8 10 9 8 9 9 7 7 8 9 9 6 3 2 0 1 4 4 4 7 10 12 13 13 14 13 13 13 13 13 10
15 21 24 21 18 16 11 7 8 10 9 3 -0 -4 -7 -2 6 8 6 6 9 13 15 18 18 17 17 14 9 8 10 10 10 10 10 10 11 10 7 7 7 8 7 4 3 2 -1 0 4 4 3 4 5 8 9 11 13 14 14 15 15 14 12
8 11 16 19 20 25 26 22 18 18 14 7 3 1 -4 -5 0 6 9 9 8 9 12 14 14 14 13 9 7 11 15 14 14 13 12 12 11 9 8 7 6 7 7 6 5 2 -0 1 3 4 6 5 4 6 7 8 10 12 12 13 13 14 13
9 7 8 12 13 16 22 24 23 23 19 15 15 10 0 -4 -2 2 8 12 11 9 10 12 11 10 9 10 12 15 15 13 12 11 11 11 9 8 8 7 7 8 9 8 5 1 0 3 5 6 7 7 6 5 5 6 8 12 13 11 9 9 9
7 6 5 6 6 4 7 13 17 19 19 19 22 21 15 8 3 1 2 7 10 10 7 7 9 9 9 11 13 11 8 8 9 9 10 9 9 11 11 9 8 7 6 5 2 1 3 6 8 8 8 10 9 6 5 6 6 10 13 13 11 10 8
6 6 4 4 3 -1 -1 6 10 13 16 18 17 20 25 19 8 4 5 4 7 10 7 5 6 7 9 10 8 6 5 5 6 9 12 11 8 9 11 12 10 7 4 2 3 6 7 6 5 5 6 8 10 10 8 4 2 5 9 12 14 12 8
3 5 5 5 2 -2 -1 4 7 8 13 16 12 12 18 19 11 7 7 5 4 7 7 5 5 6 6 5 3 4 8 8 5 5 10 14 11 7 8 10 10 8 5 3 4 5 4 1 -1 -1 1 3 5 7 8 6 3 1 1 6 11 12 10
3 3 4 3 1 -1 1 4 7 6 8 12 12 9 11 14 12 10 9 6 5 7 6 5 4 4 3 2 2 4 7 8 7 4 5 12 12 7 5 6 6 8 9 8 7 5 3 4 3 2 2 2 0 2 6 9 8 3 1 0 3 6 8
4 4 4 4 3 3 4 6 7 5 5 9 10 8 9 10 10 11 11 7 5 6 8 8 7 6 5 5 7 9 7 7 11 11 7 8 8 6 5 6 6 6 4 5 6 7 6 6 5 4 4 3 2 2 3 5 6 7 6 1 -2 2 5
6 6 4 3 5 6 6 6 6 5 5 8 9 8 9 8 7 10 11 7 5 5 5 7 9 8 8 9 9 10 9 7 10 12 7 4 5 7 8 9 8 5 2 1 3 5 5 5 4 5 6 8 11 10 10 9 7 7 10 9 6 3 1
9 9 8 6 6 7 7 5 5 4 4 6 8 9 8 5 6 10 10 8 6 4 1 3 7 7 6 6 5 4 6 7 7 7 4 3 5 5 4 4 6 7 4 2 3 3 2 2 5 5 3 2 5 9 12 13 11 9 10 12 10 7 3
9 8 10 10 8 7 8 7 6 4 4 5 8 9 7 5 5 8 10 9 7 4 3 4 6 4 2 1 1 2 4 6 5 3 3 4 4 2 -0 1 6 7 2 -1 1 1 -0 0 4 6 3 -1 0 3 4 7 10 9 8 10 12 12 9
9 7 8 9 9 8 8 9 10 8 6 6 7 9 8 6 5 6 8 10 8 5 5 7 7 6 5 3 1 0 1 2 1 1 2 3 3 3 4 4 6 6 4 3 4 4 3 0 1 3 2 -0 1 3 4 7 11 11 10 10 10 10 9
8 8 7 6 7 8 8 9 10 9 9 8 7 9 9 7 7 7 6 8 9 6 4 5 6 6 8 9 8 5 4 3 1 1 1 2 2 4 6 6 5 4 4 6 9 10 6 1 0 2 2 2 5 5 5 7 10 12 14 12 8 7 7
7 8 8 7 6 7 8 9 8 7 9 9 8 9 10 9 8 7 6 7 7 6 5 4 3 4 5 7 7 5 3 3 4 5 5 5 7 9 9 7 6 4 4 5 8 9 6 2 3 3 3 4 7 6 5 6 8 11 14 12 8 6 4
7 8 9 9 7 6 6 7 7 8 9 9 8 8 10 11 10 8 8 7 6 6 6 5 5 5 5 4 4 4 3 4 7 11 11 9 9 9 7 6 5 5 6 6 5 5 6 5 5 5 6 7 6 4 5 6 8 11 13 10 6 6 8
5 6 9 9 9 8 7 5 6 8 9 9 10 10 9 10 11 10 8 7 7 7 7 6 6 6 6 6 7 6 6 6 6 8 8 6 7 6 5 6 7 5 4 6 6 6 7 7 6 6 7 5 1 0 3 6 10 12 11 9 7 5 8
4 5 7 8 9 10 9 8 7 7 9 9 9 11 11 9 10 10 9 7 7 7 7 7 7 6 5 5 5 4 5 5 4 5 4 3 5 6 5 5 5 2 2 6 8 8 7 7 6 5 4 1 -0 2 5 7 9 11 11 11 10 9 8
5 6 5 6 8 9 10 11 10 8 8 9 8 10 11 9 8 8 8 7 6 6 7 7 7 8 7 6 6 5 5 4 4 3 2 2 3 4 2 1 2 3 6 8 7 6 6 4 3 3 3 3 4 4 5 6 7 9 9 6 4 6 8
5 7 7 5 6 8 9 11 13 11 10 9 9 11 11 11 10 9 8 7 7 7 8 9 9 9 8 7 6 4 3 3 3 2 1 3 5 6 5 6 8 10 11 9 6 5 4 3 4 7 7 6 8 7 6 7 8 8 7 4 2 4 5
6 5 8 8 7 6 6 7 9 11 11 10 9 11 13 14 16 16 14 14 12 10 11 12 12 11 10 8 6 5 4 5 5 7 11 14 17 19 19 19 19 16 13 11 9 7 7 6 8 10 8 7 9 9 7 8 9 8 7 7 5 3 3
9 6 5 8 9 7 6 5 5 7 10 11 10 9 10 11 14 16 17 18 16 13 12 12 12 11 11 10 10 11 11 12 14 17 19 18 18 19 20 19 18 15 12 11 9 7 7 6 5 4 4 5 6 7 8 8 8 6 6 6 6 4 4
7 8 6 4 6 7 7 7 7 6 7 10 10 9 8 8 9 11 15 17 16 13 10 8 8 7 7 8 11 13 14 14 14 13 11 10 9 8 8 8 9 8 7 6 5 4 4 4 3 4 5 4 5 5 6 7 7 7 9 10 11 11 10

ECMWFFLT1_500_avort_030.txt.gz
Vorticity
10 6 12 6 3 9 11 10 7 8 11 7 8 13 10 8 8 7 7 7 6 8 10 11 12 11 10 11 10 8 8 8 6 6 6 6 7 8 7 7 6 5 6 7 6 6 5 4 3 3 5 5 4 4 3 3 2 3 5 8 10 10 8
12 3 6 12 12 9 10 14 13 11 9 8 10 12 12 11 9 9 9 9 8 8 9 12 12 12 10 9 9 8 7 7 6 6 7 7 6 6 6 6 5 4 5 6 6 6 6 5 3 3 4 5 5 4 3 4 3 2 3 4 7 11 10
15 6 4 12 15 10 11 12 7 6 4 4 7 9 12 13 10 10 10 9 10 10 10 11 9 9 8 7 7 8 7 6 8 7 6 6 6 5 6 5 4 4 3 4 5 5 6 5 4 3 2 3 4 4 4 4 4 3 3 3 4 8 11
20 16 8 9 14 9 6 9 10 11 6 4 6 7 9 11 11 11 10 10 11 10 12 10 8 7 5 6 7 7 7 6 8 8 5 4 4 3 4 4 5 5 4 5 5 5 6 6 6 6 4 3 3 3 3 3 4 4 3 3 3 4 8
10 8 4 5 12 9 4 8 13 13 5 1 5 6 6 8 10 11 11 12 11 9 11 9 7 8 5 6 7 5 6 6 7 8 6 5 5 5 6 6 6 7 6 7 6 6 7 6 6 7 7 7 6 5 4 3 3 4 3 3 3 3 4
6 9 6 -2 -0 8 10 8 12 18 13 5 4 6 6 7 10 11 10 11 12 9 9 9 7 8 6 6 6 6 7 6 5 7 7 7 7 7 8 8 7 6 6 6 7 6 6 6 6 6 6 6 7 7 6 5 4 3 3 4 4 4 3
7 18 12 -1 -4 5 11 9 9 17 16 6 2 5 7 6 8 11 10 9 11 9 8 9 8 7 8 7 7 7 7 6 5 6 6 5 6 6 7 7 7 6 6 7 9 8 9 10 10 10 10 9 9 8 6 6 6 5 4 4 4 5 4
11 12 7 4 4 1 4 12 12 14 18 13 6 5 7 9 7 9 11 9 9 9 6 7 7 7 8 7 7 7 5 5 6 5 5 6 7 8 7 8 7 6 7 7 8 9 10 11 12 12 12 12 12 12 9 7 6 6 5 5 4 4 5
16 13 13 18 20 10 4 10 15 18 19 9 -0 -3 1 10 9 6 10 10 7 7 7 7 7 7 9 8 8 8 7 7 6 4 6 6 6 8 8 8 8 7 7 8 9 10 10 10 11 11 12 12 12 13 12 10 7 6 5 5 5 4 4
19 11 7 5 8 11 8 9 16 16 10 5 6 3 0 8 11 7 8 9 7 7 6 7 8 8 9 8 8 9 7 6 6 6 7 6 6 7 7 8 9 8 7 9 10 10 9 9 9 9 11 12 13 13 13 13 11 9 8 7 5 5 5
18 5 -3 -9 -8 1 2 5 14 12 5 14 26 18 4 5 9 8 8 8 7 7 7 8 8 7 8 7 6 7 6 5 7 8 8 8 8 8 9 9 8 8 7 8 9 9 8 8 7 8 10 12 15 15 15 15 15 13 12 11 9 8 7
10 6 9 11 10 11 8 10 16 12 2 9 22 19 10 7 7 8 10 9 8 8 8 8 8 8 7 6 5 5 5 5 6 8 9 9 10 9 8 9 7 7 6 6 8 9 8 7 8 11 12 12 15 17 15 16 16 15 14 12 13 12 10
1 2 6 10 13 15 16 18 19 15 6 3 10 14 12 9 7 9 10 10 9 8 8 8 7 7 7 6 5 2 2 4 3 6 7 7 8 7 6 7 8 7 6 5 7 8 7 7 10 12 12 11 12 14 15 15 15 16 16 15 16 16 15
2 6 3 1 3 4 12 18 15 12 7 4 5 6 7 7 8 10 9 9 10 9 9 9 7 8 7 8 8 2 0 2 1 4 7 5 5 5 4 6 7 6 6 5 6 7 7 8 10 12 12 11 10 10 12 13 13 14 14 13 14 14 15
5 7 2 1 2 2 10 17 14 8 3 3 2 -1 3 6 7 12 10 6 6 7 9 10 8 8 6 6 8 5 1 1 0 3 6 5 5 4 3 4 4 5 6 5 6 7 8 9 12 12 11 10 9 9 11 11 10 10 10 10 10 10 11
2 3 2 2 1 -0 8 16 14 7 1 2 3 0 3 6 7 11 10 6 6 6 7 9 9 9 7 6 7 7 4 3 2 4 8 8 6 4 3 3 5 7 6 6 8 8 8 10 12 11 10 8 8 8 10 9 8 7 7 6 6 7 8
-2 3 6 7 6 2 6 12 10 6 2 1 2 1 3 5 5 6 6 4 6 7 7 8 8 9 10 9 9 8 8 7 6 8 12 11 7 5 4 3 5 8 8 7 9 9 9 11 12 11 8 6 7 7 8 8 6 4 4 3 3 4 4
-3 0 3 7 12 10 11 12 6 1 1 2 2 1 0 2 3 4 4 5 5 6 6 6 7 8 9 12 15 14 15 14 14 15 16 14 10 7 4 4 7 10 9 9 11 10 9 9 9 10 8 5 6 6 6 6 3 2 2 2 2 2 3
11 3 -2 2 7 11 14 15 10 5 3 3 3 3 0 -2 -1 0 3 5 5 5 5 3 5 6 5 10 17 18 16 16 18 20 18 14 11 7 5 7 9 10 10 10 11 11 11 10 7 8 8 8 7 4 3 4 5 5 4 3 3 3 3
20 7 -1 3 7 12 15 13 12 12 12 11 9 8 7 5 4 3 2 3 3 3 4 2 2 3 1 5 12 14 14 14 16 18 15 12 11 8 8 9 10 11 13 12 11 11 12 11 8 7 7 7 7 5 3 3 6 7 7 7 8 6 5
17 7 2 5 7 12 13 9 9 9 9 11 8 6 9 9 8 6 3 3 2 2 4 3 1 1 1 2 8 15 19 16 12 13 14 12 12 10 9 11 12 13 12 10 9 11 12 11 10 10 8 6 7 8 8 7 8 9 8 7 5 4 5
14 10 8 12 15 16 11 6 8 7 4 6 3 1 4 5 8 10 7 6 4 1 1 3 1 2 4 4 6 17 25 19 11 10 11 10 9 9 10 12 12 10 9 9 10 11 12 12 11 11 10 8 7 7 7 8 8 9 8 4 2 4 5
11 11 8 7 9 13 12 7 7 9 10 11 8 7 7 5 8 12 10 10 10 4 1 3 1 2 5 3 4 16 25 21 15 12 10 10 10 12 13 13 9 8 8 9 11 12 12 11 10 9 9 8 7 6 6 5 4 6 7 6 7 8 6
7 9 8 4 2 8 13 10 10 14 17 18 16 15 14 12 12 13 12 13 14 10 7 5 1 3 5 1 3 15 19 15 15 15 14 15 15 13 12 9 7 7 7 6 8 9 10 10 9 7 5 4 5 5 5 4 4 3 3 3 3 2 1
8 7 8 8 6 7 11 11 11 13 15 16 16 15 16 17 17 17 18 19 18 15 14 10 5 5 7 2 5 14 12 5 6 7 7 9 9 6 6 6 7 7 5 5 5 5 6 8 7 6 5 4 6 7 6 7 6 4 2 2 2 2 2
6 6 5 6 5 6 10 10 9 9 9 9 11 13 16 17 17 18 19 21 22 19 18 16 11 9 9 4 5 11 10 4 3 2 1 3 3 2 3 5 7 7 5 5 5 5 6 6 6 7 8 8 9 9 8 7 7 7 7 7 7 8 6
1 3 3 4 5 7 7 7 7 9 9 8 8 9 10 10 12 15 15 15 17 18 20 22 18 14 13 9 5 7 8 5 3 2 2 2 2 2 3 4 6 8 6 5 6 7 7 6 4 5 5 5 5 3 2 4 5 6 8 8 7 6 4
-2 -1 -1 1 5 5 3 4 6 8 8 9 8 6 5 5 6 8 9 9 11 13 16 20 20 17 16 15 12 10 8 5 4 5 5 5 3 3 3 4 6 7 6 7 8 8 8 6 4 3 4 3 3 2 3 4 4 4 4 4 5 4 3
2 2 2 3 5 4 3 4 4 5 6 7 6 5 6 5 3 2 4 6 7 8 9 12 15 16 14 14 15 15 11 6 4 5 5 7 6 5 4 5 5 3 3 5 5 4 5 5 4 3 2 1 1 2 3 3 4 4 5 7 7 5 4
9 6 4 5 5 4 5 6 5 4 4 3 4 5 5 4 2 2 4 5 5 7 6 6 10 13 12 10 11 13 12 8 7 6 4 5 6 5 4 4 3 3 3 3 2 2 3 4 3 2 0 1 2 2 2 3 5 6 9 11 9 5 5
8 8 5 6 7 4 4 6 4 2 3 5 5 5 5 5 5 5 7 8 7 7 6 5 6 9 11 10 9 8 8 8 9 8 5 3 4 4 4 3 3 4 3 3 3 3 2 2 3 2 1 2 2 1 2 3 5 6 7 8 7 5 5
1 6 6 5 5 3 3 5 3 1 2 4 5 5 6 6 4 2 5 9 9 8 7 6 5 5 8 10 9 8 8 8 9 10 9 5 3 3 4 4 3 3 2 2 1 1 1 2 2 2 3 3 2 2 2 2 5 6 4 4 4 4 4
-1 3 8 8 7 5 4 2 2 1 1 2 3 4 5 6 3 0 2 6 7 8 8 6 6 5 6 8 8 8 9 10 9 9 10 9 7 5 5 4 3 2 3 2 1 1 2 2 2 2 2 2 1 2 2 4 7 6 2 2 5 5 4
1 1 6 9 9 9 8 6 4 3 2 3 4 4 4 6 5 2 2 3 5 6 6 6 6 6 5 6 7 7 8 10 9 8 9 11 12 10 7 5 4 3 3 3 3 2 2 2 2 2 1 1 1 2 4 7 7 4 3 4 4 3 4
4 3 4 6 10 11 11 10 10 7 5 5 5 5 5 6 6 5 3 3 4 4 4 5 6 6 5 5 5 6 7 7 7 8 8 10 11 10 7 6 6 4 2 2 3 2 2 1 1 1 2 3 4 5 7 8 6 3 3 3 1 3 5
4 3 3 6 10 11 11 11 11 10 9 8 7 7 6 5 5 5 4 3 4 4 4 4 5 6 6 5 4 5 6 6 7 9 9 8 8 9 7 7 7 5 4 4 5 4 4 4 4 5 7 7 7 8 7 6 4 4 3 2 3 6 9
5 4 5 8 9 10 12 12 12 11 11 9 8 8 7 6 6 6 5 5 5 5 5 5 6 6 5 5 6 5 4 5 7 8 8 7 6 8 8 6 6 6 6 7 8 8 7 7 7 7 7 8 8 6 5 4 3 3 3 5 8 10 12
9 5 4 6 9 10 10 10 12 13 12 10 9 9 8 8 9 8 9 9 7 7 7 7 7 8 6 5 6 6 5 5 5 6 7 8 7 7 6 5 5 5 5 5 5 5 4 4 5 5 5 6 6 5 5 6 6 7 8 10 10 10 11

ECMWFFLT1_500_avort_033.txt.gz
Vorticity
6 -17 -10 2 4 5 6 7 8 11 12 13 13 11 9 10 10 9 12 12 7 5 5 6 9 11 10 9 9 10 11 11 10 8 7 5 6 8 10 8 7 8 8 7 8 10 8 4 4 8 7 4 6 7 6 7 5 4 4 5 7 9 9
-1 -7 2 6 8 9 5 7 10 10 11 13 14 13 11 10 10 9 9 10 9 6 5 4 5 6 9 9 9 11 12 12 10 9 7 6 7 10 11 8 5 6 7 6 5 5 4 2 2 3 5 3 2 4 4 6 7 5 4 3 4 7 8
16 18 13 11 17 16 7 5 6 6 10 13 10 11 12 10 7 8 9 8 7 8 7 6 6 5 7 8 9 12 12 11 12 10 7 7 10 11 10 8 6 5 6 7 5 4 3 2 1 -0 1 2 0 1 2 2 4 4 4 4 3 3 5
17 8 3 13 20 15 8 5 3 5 10 12 10 11 16 14 7 6 8 9 8 8 8 9 10 9 7 8 10 11 10 10 10 8 7 7 8 8 7 6 7 5 5 7 7 7 7 6 5 4 4 5 4 3 4 4 3 2 3 3 3 3 2
11 -3 -5 9 14 9 10 9 5 5 7 11 9 9 15 16 10 7 8 10 10 8 9 9 11 12 11 10 10 9 8 8 8 7 7 7 5 5 5 4 5 5 4 6 7 7 8 7 7 7 6 7 7 6 6 6 6 5 4 3 3 3 3
7 2 0 12 18 15 13 10 8 6 5 10 8 4 12 16 11 9 9 11 11 9 10 10 11 13 13 13 11 9 8 6 7 8 7 7 6 4 6 6 5 6 6 6 6 6 6 7 7 7 7 7 7 7 6 6 6 7 6 6 4 4 4
9 7 13 22 23 18 13 7 7 7 6 13 14 6 7 13 12 10 10 12 11 10 10 10 11 11 11 11 10 7 7 7 7 9 7 6 7 7 7 8 6 7 8 6 7 8 7 9 10 10 11 10 9 9 9 8 7 6 6 7 6 5 5
10 12 23 23 16 12 12 8 7 8 10 14 18 13 9 13 14 12 13 13 10 9 10 9 8 8 7 6 7 6 6 7 7 7 7 5 6 7 6 6 7 7 9 9 9 8 9 10 12 12 12 11 10 10 10 10 10 9 8 7 7 6 6
9 13 17 9 5 3 -1 2 6 10 14 14 15 14 12 11 12 14 17 13 10 10 8 8 7 7 7 5 5 7 6 7 8 7 8 9 7 7 6 5 6 7 8 9 8 8 10 12 12 11 10 9 9 9 8 10 12 13 12 10 10 9 8
1 -0 1 -0 10 11 -1 -0 6 9 13 13 13 14 12 9 8 14 19 15 11 10 7 7 6 4 6 6 5 8 7 6 9 8 9 10 8 7 7 5 7 9 10 9 8 8 10 12 12 10 8 8 9 12 12 12 13 14 14 13 12 12 11
3 3 4 6 17 15 2 -2 2 8 12 11 11 12 10 8 4 7 17 16 10 9 7 6 7 5 6 6 6 8 8 7 8 9 9 9 8 7 6 7 9 10 11 9 7 7 7 8 9 9 10 10 11 14 14 13 13 13 14 13 12 12 13
12 11 10 22 33 29 18 10 5 6 11 11 7 4 3 4 2 5 15 16 9 9 8 6 7 8 7 7 8 8 8 9 8 8 9 8 8 7 6 8 9 9 10 8 6 6 6 6 7 8 12 13 13 13 13 14 13 12 11 13 13 13 14
12 3 10 33 36 24 20 14 7 8 13 12 5 2 3 4 6 11 15 14 11 8 8 8 7 8 9 9 9 8 7 7 5 5 6 5 5 6 7 8 9 8 8 7 6 6 6 6 7 9 11 13 13 12 12 12 12 11 11 12 13 14 14
8 -4 6 22 13 3 7 7 3 5 12 15 8 4 7 7 9 15 14 12 14 9 5 7 7 8 10 9 8 7 5 4 4 3 3 3 3 5 7 7 6 6 6 6 6 6 7 7 9 10 11 11 11 11 11 10 9 10 10 10 11 10 9
5 -0 1 9 10 12 18 19 15 6 4 14 14 8 10 10 9 12 13 11 13 11 7 7 7 8 11 11 9 9 7 3 3 2 2 2 3 4 6 5 5 5 4 5 7 7 7 8 9 11 11 10 10 9 9 9 8 8 8 7 7 5 5
-0 4 -0 -1 5 5 4 9 13 9 7 13 14 9 8 9 7 6 9 10 8 9 9 9 9 10 12 14 12 10 10 7 5 4 2 2 1 1 4 5 5 6 4 5 7 8 8 7 9 12 11 9 9 8 8 9 7 7 6 5 6 6 7
1 8 6 -1 1 3 6 7 6 8 14 14 11 9 5 4 5 4 6 9 7 6 7 7 8 8 8 10 9 8 11 10 9 7 5 4 3 3 5 6 6 7 5 5 7 8 7 8 9 11 10 9 9 7 6 7 6 5 5 5 6 8 9
6 8 8 2 -0 6 15 15 8 7 12 12 8 7 5 3 5 6 7 10 8 4 5 5 6 7 6 7 8 8 10 12 11 11 9 8 8 8 9 9 7 7 6 5 8 8 7 7 9 10 10 8 8 7 5 4 3 3 4 4 4 6 7
0 -2 -3 -1 1 12 19 14 9 5 4 9 12 9 7 4 4 7 7 7 7 5 5 5 5 5 5 6 6 6 8 13 14 14 14 14 14 13 13 12 9 8 7 6 7 8 7 9 10 11 10 8 6 7 6 5 3 2 3 3 4 6 6
9 2 -6 -2 -1 2 9 10 14 14 8 9 11 6 4 2 2 5 5 5 6 4 3 4 4 3 3 3 4 3 4 8 12 15 15 15 17 18 18 16 11 8 7 7 7 8 9 11 11 9 11 10 7 5 4 4 2 1 2 4 6 8 6
17 8 -2 9 10 0 -1 3 11 17 17 16 14 8 5 5 4 6 7 6 5 2 1 2 2 3 3 1 2 3 3 4 8 16 17 14 15 19 18 16 13 9 9 8 7 9 10 11 10 9 9 11 12 11 8 5 3 2 3 6 8 7 4
14 12 4 10 17 12 5 3 3 7 10 14 16 13 10 8 7 6 5 5 5 4 3 3 2 4 3 0 -0 0 2 3 6 15 22 16 14 17 16 14 12 10 9 8 8 10 11 10 11 11 8 8 10 11 12 10 8 7 6 7 7 6 4
7 12 9 7 11 13 12 11 11 11 10 12 14 14 11 8 6 5 5 6 8 9 9 6 4 4 1 0 2 0 1 3 3 11 23 18 11 13 14 11 9 7 7 8 10 10 10 9 10 11 10 9 7 7 8 9 9 9 8 6 6 6 5
5 7 10 8 8 11 12 11 10 11 10 9 9 9 10 8 5 4 4 3 2 4 8 9 8 7 4 1 3 2 1 2 1 9 25 22 11 10 9 7 8 9 9 11 11 9 10 11 12 12 13 11 9 8 7 6 6 6 5 4 4 3 2
5 6 8 9 9 9 9 8 9 9 6 4 5 7 9 10 8 7 6 5 4 2 4 6 8 10 9 4 4 3 1 1 1 8 22 24 15 14 15 12 12 13 11 10 8 7 8 9 10 11 11 10 8 6 5 4 5 6 5 5 4 4 3
7 7 6 6 7 9 8 6 7 6 6 9 11 8 6 6 9 12 12 12 13 10 6 7 8 12 11 6 5 5 1 0 1 4 13 15 10 10 13 13 12 11 9 8 7 6 6 7 8 8 8 8 7 5 6 8 8 7 5 4 3 3 4
6 6 6 6 6 7 9 9 8 7 8 10 9 7 8 8 8 12 15 15 17 16 14 13 13 14 14 9 6 6 3 1 1 4 9 9 5 5 5 5 6 6 6 7 7 6 6 6 6 6 6 7 6 5 6 7 5 3 1 1 2 3 3
4 2 4 7 7 6 7 9 11 10 7 6 7 8 11 10 8 11 14 14 16 18 20 20 18 16 16 14 12 10 6 1 1 5 8 6 5 6 4 3 3 2 3 5 5 6 6 5 5 6 6 7 6 5 5 4 3 3 2 2 4 3 2
5 3 3 7 8 6 7 7 8 10 7 6 10 11 9 8 8 9 8 7 9 13 16 19 19 17 16 15 14 14 11 6 5 9 9 7 7 6 4 5 5 2 2 3 3 5 6 5 6 6 5 5 5 4 4 4 3 2 1 1 1 1 1
5 2 3 6 4 4 8 6 3 5 7 7 8 9 9 8 6 4 3 4 7 9 10 11 14 15 15 13 12 14 14 11 10 11 10 10 10 6 3 3 5 5 5 4 4 5 4 2 3 3 2 2 3 3 4 3 1 0 -0 0 1 1 2
5 2 3 4 1 2 5 3 1 3 5 6 7 8 8 8 6 5 5 6 7 6 5 6 7 9 11 11 10 11 12 11 11 11 10 12 12 9 4 2 3 5 5 5 6 6 4 1 1 1 0 1 2 3 3 2 1 1 1 2 3 3 3
5 1 -0 -2 -3 -0 2 -1 -2 -0 2 3 5 5 5 6 7 7 7 6 6 3 3 4 4 4 6 8 9 9 9 9 10 10 11 12 12 11 8 5 4 4 4 5 6 5 4 3 2 2 2 2 1 1 1 0 -0 1 3 4 4 3 3
9 2 -2 -4 -5 -3 0 -1 -4 -3 0 4 5 5 4 3 5 6 6 6 5 3 2 3 3 4 5 5 5 7 7 7 8 8 10 10 10 12 11 9 7 6 4 4 4 4 4 5 4 4 3 3 2 1 1 2 2 2 3 3 2 2 2
14 9 4 2 2 0 -1 -0 -1 -2 1 5 6 6 5 4 4 5 5 5 4 5 5 4 4 6 7 6 5 5 5 6 6 7 8 9 9 10 10 9 9 8 6 5 5 5 4 4 4 4 4 3 3 3 3 3 3 2 2 2 2 2 3
13 16 12 8 9 8 5 2 2 3 5 6 6 6 5 5 5 4 5 6 6 5 5 6 6 7 7 7 7 5 4 5 5 4 6 8 8 8 8 8 8 7 7 7 7 6 6 6 5 4 4 4 3 3 3 2 2 2 2 2 3 3 3
7 10 13 11 10 10 9 8 5 4 4 5 5 5 5 4 4 3 2 2 3 4 4 5 6 7 7 7 7 7 7 6 5 5 5 6 7 7 6 7 6 6 8 9 7 7 8 7 6 6 5 5 3 2 3 3 2 3 3 3 4 4 4
11 8 9 10 10 9 9 10 9 7 5 5 5 5 4 4 4 3 1 0 1 3 4 4 5 6 7 8 7 7 8 7 7 7 8 7 7 6 5 6 5 5 6 6 6 7 7 6 6 6 5 5 4 3 4 4 3 4 4 4 4 4 4
12 14 11 8 9 9 7 6 6 6 5 5 5 5 4 4 3 2 2 3 4 5 5 5 5 5 6 7 6 6 6 6 6 6 7 6 6 5 6 6 5 5 6 6 6 7 7 6 6 5 5 5 5 4 4 4 4 4 4 4 4 4 4